Location: LDNL
(36.4545°S, 141.6685°E)
Time: 09:38:45
(UTC+10:00)

Envisat - Pass Details

Date: 03 July 2022
Orbit: 763 x 765 km, 98.2° (Epoch: 15 August)

Event Time Altitude Azimuth Distance (km) Brightness Sun altitude
Rises 18:43:07 0° 194° (SSW) 3,265 6.2 -14.4°
Maximum altitude 18:48:32 10° 241° (WSW) 2,326 6.1 -15.5°
Drops below altitude 10° 18:48:37 10° 242° (WSW) 2,326 6.1 -15.5°
Sets 18:53:56 0° 289° (WNW) 3,237 8.1 -16.5°
